Date,TemperatureHighF,TemperatureAvgF,TemperatureLowF,DewpointHighF,DewpointAvgF,DewpointLowF,HumidityHigh,HumidityAvg,HumidityLow,PressureMaxIn,PressureMinIn,WindSpeedMaxMPH,WindSpeedAvgMPH,GustSpeedMaxMPH,PrecipitationSumIn
2013-2-1,33,26,20,16,12,8,67,55,37,30.09,29.62,19,6,0,0.00
2013-2-2,29,22,17,21,13,8,98,71,43,30.17,29.95,11,5,0,0.00
2013-2-3,32,23,14,24,19,14,98,85,58,29.95,29.66,8,1,0,0.02
2013-2-4,31,25,21,24,13,8,98,63,40,29.85,29.67,11,4,0,0.00
2013-2-5,32,25,20,27,22,15,98,89,70,29.91,29.79,6,1,0,0.00
2013-2-6,39,30,23,30,21,2,98,73,38,30.25,29.81,11,3,0,0.04
2013-2-7,34,24,14,18,12,3,90,62,40,30.43,30.24,5,1,0,0.00
2013-2-8,32,29,25,31,26,18,98,92,68,30.25,29.60,16,5,0,0.00
2013-2-9,32,25,11,30,19,6,98,80,51,30.24,29.68,16,5,0,0.00
2013-2-10,36,18,2,17,9,-1,98,71,35,30.39,30.21,4,1,0,0.01
2013-2-11,40,32,20,40,32,17,98,97,87,30.20,29.55,3,0,0,0.21
2013-2-12,43,38,31,38,31,27,98,75,63,29.84,29.58,8,3,0,0.01
2013-2-13,46,36,27,35,28,24,98,74,50,29.82,29.58,8,1,0,0.00
2013-2-14,45,34,21,36,29,21,98,85,57,29.86,29.60,6,1,0,0.02
2013-2-15,53,40,28,38,32,27,98,77,51,29.88,29.77,9,2,0,0.00
2013-2-16,37,32,27,35,26,16,98,80,59,29.88,29.65,10,4,0,0.03
2013-2-17,32,24,15,17,7,1,64,50,32,29.84,29.54,14,7,0,0.00
2013-2-18,36,24,14,15,8,2,61,50,37,30.10,29.85,11,4,0,0.00
2013-2-19,42,34,21,39,28,14,98,82,53,30.07,29.53,15,3,0,0.22
2013-2-20,36,29,24,31,18,12,83,62,50,29.84,29.55,16,6,0,0.00
2013-2-21,35,26,20,19,16,13,98,64,50,30.23,29.83,14,5,0,0.00
2013-2-22,41,30,18,33,25,18,98,81,57,30.32,30.16,6,2,0,0.00
2013-2-23,40,36,32,40,35,32,98,98,98,30.16,29.73,6,1,0,0.10
2013-2-24,45,36,29,44,35,28,98,94,72,29.85,29.62,10,2,0,0.04
2013-2-25,47,35,22,37,30,22,98,85,58,30.12,29.85,4,1,0,0.01
2013-2-26,46,38,26,36,32,26,98,81,62,30.21,29.86,8,2,0,0.08
2013-2-27,45,39,33,44,38,32,98,98,98,29.87,29.40,9,3,0,1.06
2013-2-28,50,40,34,44,39,34,98,94,69,29.49,29.42,7,2,0,0.06